Time,TemperatureF,DewpointF,PressureIn,WindDirection,WindDirectionDegrees,WindSpeedMPH,WindSpeedGustMPH,Humidity,HourlyPrecipIn,Conditions,Clouds,dailyrainin,SolarRadiationWatts/m^2,SoftwareType,DateUTC
2013-09-15 00:00:00,51.6,46.0,30.10,North,360,0.0,0.0,81,0.00,,,0.00,0,Wunderground v.1.15,2013-09-15 04:00:00,
2013-09-15 00:02:00,51.6,46.0,30.10,North,360,0.0,0.0,81,0.00,,,0.00,0,Wunderground v.1.15,2013-09-15 04:02:00,
2013-09-15 00:10:00,51.3,46.0,30.10,North,360,0.0,0.0,82,0.00,,,0.00,0,Wunderground v.1.15,2013-09-15 04:10:00,
2013-09-15 00:16:00,51.1,45.8,30.10,North,360,0.0,0.0,82,0.00,,,0.00,0,Wunderground v.1.15,2013-09-15 04:16:00,
2013-09-15 00:20:00,51.1,46.1,30.10,North,360,0.0,0.0,83,0.00,,,0.00,0,Wunderground v.1.15,2013-09-15 04:20:00,
2013-09-15 00:30:00,50.8,46.1,30.10,North,360,0.0,0.0,84,0.00,,,0.00,0,Wunderground v.1.15,2013-09-15 04:30:00,
2013-09-15 00:40:00,50.7,46.4,30.10,North,360,0.0,0.0,85,0.00,,,0.00,0,Wunderground v.1.15,2013-09-15 04:40:00,
2013-09-15 00:54:00,50.4,46.1,30.10,North,360,0.0,0.0,85,0.00,,,0.00,0,Wunderground v.1.15,2013-09-15 04:54:00,
2013-09-15 00:56:00,50.4,46.1,30.10,North,360,0.0,0.0,85,0.00,,,0.00,0,Wunderground v.1.15,2013-09-15 04:56:00,
2013-09-15 01:03:00,50.4,46.1,30.10,North,360,0.0,0.0,85,0.00,,,0.00,0,Wunderground v.1.15,2013-09-15 05:03:00,
2013-09-15 01:14:00,50.2,45.9,30.10,North,360,0.0,0.0,85,0.00,,,0.00,0,Wunderground v.1.15,2013-09-15 05:14:00,
2013-09-15 01:24:00,50.1,46.1,30.10,North,360,0.0,0.0,86,0.00,,,0.00,0,Wunderground v.1.15,2013-09-15 05:24:00,
2013-09-15 01:31:00,49.9,45.9,30.10,North,360,0.0,0.0,86,0.00,,,0.00,0,Wunderground v.1.15,2013-09-15 05:31:00,
2013-09-15 01:45:00,49.6,45.6,30.10,North,360,0.0,0.0,86,0.00,,,0.00,0,Wunderground v.1.15,2013-09-15 05:45:00,
2013-09-15 01:53:00,49.4,45.7,30.10,North,360,0.0,0.0,87,0.00,,,0.00,0,Wunderground v.1.15,2013-09-15 05:53:00,
2013-09-15 02:05:00,49.1,45.4,30.11,North,360,0.0,0.0,87,0.00,,,0.00,0,Wunderground v.1.15,2013-09-15 06:05:00,
2013-09-15 02:13:00,48.9,45.2,30.11,North,360,0.0,0.0,87,0.00,,,0.00,0,Wunderground v.1.15,2013-09-15 06:13:00,
2013-09-15 02:24:00,48.6,45.2,30.10,North,360,0.0,0.0,88,0.00,,,0.00,0,Wunderground v.1.15,2013-09-15 06:24:00,
2013-09-15 02:34:00,48.3,44.9,30.11,North,360,0.0,0.0,88,0.00,,,0.00,0,Wunderground v.1.15,2013-09-15 06:34:00,
2013-09-15 02:43:00,48.3,45.2,30.11,North,360,0.0,0.0,89,0.00,,,0.00,0,Wunderground v.1.15,2013-09-15 06:43:00,
2013-09-15 02:51:00,48.2,45.1,30.11,North,360,0.0,0.0,89,0.00,,,0.00,0,Wunderground v.1.15,2013-09-15 06:51:00,
2013-09-15 03:04:00,48.0,45.2,30.11,North,360,0.0,0.0,90,0.00,,,0.00,0,Wunderground v.1.15,2013-09-15 07:04:00,
2013-09-15 03:13:00,47.9,45.1,30.11,North,360,0.0,0.0,90,0.00,,,0.00,0,Wunderground v.1.15,2013-09-15 07:13:00,
2013-09-15 03:23:00,47.7,45.2,30.11,North,360,0.0,0.0,91,0.00,,,0.00,0,Wunderground v.1.15,2013-09-15 07:23:00,
2013-09-15 03:35:00,48.2,46.0,30.11,North,360,1.0,3.0,92,0.00,,,0.00,0,Wunderground v.1.15,2013-09-15 07:35:00,
2013-09-15 03:43:00,48.3,45.8,30.11,North,360,1.0,3.0,91,0.00,,,0.00,0,Wunderground v.1.15,2013-09-15 07:43:00,
2013-09-15 03:51:00,48.5,46.0,30.11,North,360,0.0,0.0,91,0.00,,,0.00,0,Wunderground v.1.15,2013-09-15 07:51:00,
2013-09-15 04:01:00,48.3,45.8,30.12,North,360,0.0,0.0,91,0.00,,,0.00,0,Wunderground v.1.15,2013-09-15 08:01:00,
2013-09-15 04:06:00,48.3,45.5,30.12,North,360,0.0,0.0,90,0.00,,,0.00,0,Wunderground v.1.15,2013-09-15 08:06:00,
2013-09-15 04:12:00,48.2,45.4,30.12,North,360,0.0,0.0,90,0.00,,,0.00,0,Wunderground v.1.15,2013-09-15 08:12:00,
2013-09-15 04:20:00,48.0,45.2,30.12,North,360,0.0,0.0,90,0.00,,,0.00,0,Wunderground v.1.15,2013-09-15 08:20:00,
2013-09-15 04:26:00,47.9,45.1,30.12,North,360,0.0,0.0,90,0.00,,,0.00,0,Wunderground v.1.15,2013-09-15 08:26:00,
2013-09-15 04:32:00,47.7,44.9,30.12,North,360,0.0,0.0,90,0.00,,,0.00,0,Wunderground v.1.15,2013-09-15 08:32:00,
2013-09-15 04:40:00,47.4,44.6,30.12,North,360,0.0,0.0,90,0.00,,,0.00,0,Wunderground v.1.15,2013-09-15 08:40:00,
2013-09-15 04:46:00,47.1,44.3,30.13,North,360,0.0,0.0,90,0.00,,,0.00,0,Wunderground v.1.15,2013-09-15 08:46:00,
2013-09-15 04:52:00,47.0,44.2,30.13,North,360,0.0,0.0,90,0.00,,,0.00,0,Wunderground v.1.15,2013-09-15 08:52:00,
2013-09-15 05:00:00,46.8,44.3,30.13,North,360,0.0,0.0,91,0.00,,,0.00,0,Wunderground v.1.15,2013-09-15 09:00:00,
2013-09-15 05:06:00,46.5,44.0,30.13,North,360,0.0,0.0,91,0.00,,,0.00,0,Wunderground v.1.15,2013-09-15 09:06:00,
2013-09-15 05:12:00,46.4,43.9,30.13,North,360,0.0,0.0,91,0.00,,,0.00,0,Wunderground v.1.15,2013-09-15 09:12:00,
2013-09-15 05:17:00,46.2,43.7,30.13,North,360,0.0,0.0,91,0.00,,,0.00,0,Wunderground v.1.15,2013-09-15 09:17:00,
2013-09-15 05:23:00,46.1,43.6,30.13,North,360,0.0,0.0,91,0.00,,,0.00,0,Wunderground v.1.15,2013-09-15 09:23:00,
2013-09-15 05:31:00,46.0,43.8,30.13,North,360,0.0,0.0,92,0.00,,,0.00,0,Wunderground v.1.15,2013-09-15 09:31:00,
2013-09-15 05:37:00,46.0,43.8,30.13,North,360,0.0,0.0,92,0.00,,,0.00,0,Wunderground v.1.15,2013-09-15 09:37:00,
2013-09-15 05:43:00,45.8,43.6,30.13,North,360,0.0,0.0,92,0.00,,,0.00,0,Wunderground v.1.15,2013-09-15 09:43:00,
2013-09-15 05:51:00,45.7,43.5,30.13,North,360,0.0,0.0,92,0.00,,,0.00,0,Wunderground v.1.15,2013-09-15 09:51:00,
2013-09-15 05:57:00,45.7,43.5,30.13,North,360,0.0,0.0,92,0.00,,,0.00,0,Wunderground v.1.15,2013-09-15 09:57:00,
2013-09-15 06:02:00,45.7,43.8,30.14,North,360,0.0,0.0,93,0.00,,,0.00,0,Wunderground v.1.15,2013-09-15 10:02:00,
2013-09-15 06:09:00,45.7,43.8,30.14,North,360,0.0,0.0,93,0.00,,,0.00,0,Wunderground v.1.15,2013-09-15 10:09:00,
2013-09-15 06:16:00,45.8,43.9,30.14,North,360,0.0,0.0,93,0.00,,,0.00,0,Wunderground v.1.15,2013-09-15 10:16:00,
2013-09-15 06:22:00,45.8,43.9,30.14,North,360,0.0,0.0,93,0.00,,,0.00,0,Wunderground v.1.15,2013-09-15 10:22:00,
2013-09-15 06:29:00,45.8,44.2,30.14,North,360,0.0,0.0,94,0.00,,,0.00,0,Wunderground v.1.15,2013-09-15 10:29:00,
2013-09-15 06:34:00,45.8,44.2,30.14,North,360,0.0,0.0,94,0.00,,,0.00,0,Wunderground v.1.15,2013-09-15 10:34:00,
2013-09-15 06:40:00,45.7,44.1,30.14,North,360,0.0,1.0,94,0.00,,,0.00,5,Wunderground v.1.15,2013-09-15 10:40:00,
2013-09-15 06:46:00,45.8,44.2,30.15,North,360,0.0,0.0,94,0.00,,,0.00,9,Wunderground v.1.15,2013-09-15 10:46:00,
2013-09-15 06:52:00,46.1,44.5,30.15,North,360,1.0,1.0,94,0.00,,,0.00,11,Wunderground v.1.15,2013-09-15 10:52:00,
2013-09-15 07:00:00,46.2,44.8,30.15,North,360,0.0,0.0,95,0.00,,,0.00,14,Wunderground v.1.15,2013-09-15 11:00:00,
2013-09-15 07:06:00,46.4,45.0,30.15,North,360,0.0,0.0,95,0.00,,,0.00,18,Wunderground v.1.15,2013-09-15 11:06:00,
2013-09-15 07:12:00,46.5,45.1,30.15,North,360,0.0,0.0,95,0.00,,,0.00,23,Wunderground v.1.15,2013-09-15 11:12:00,
2013-09-15 07:20:00,46.7,45.3,30.16,North,360,0.0,0.0,95,0.00,,,0.00,30,Wunderground v.1.15,2013-09-15 11:20:00,
2013-09-15 07:26:00,46.8,45.4,30.16,North,360,0.0,0.0,95,0.00,,,0.00,33,Wunderground v.1.15,2013-09-15 11:26:00,
2013-09-15 07:32:00,47.1,45.7,30.15,North,360,0.0,0.0,95,0.00,,,0.00,60,Wunderground v.1.15,2013-09-15 11:32:00,
2013-09-15 07:38:00,47.6,46.2,30.15,North,360,0.0,1.0,95,0.00,,,0.00,137,Wunderground v.1.15,2013-09-15 11:38:00,
2013-09-15 07:46:00,48.0,46.6,30.16,North,360,0.0,0.0,95,0.00,,,0.00,76,Wunderground v.1.15,2013-09-15 11:46:00,
2013-09-15 07:52:00,48.5,47.1,30.16,North,360,0.0,0.0,95,0.00,,,0.00,39,Wunderground v.1.15,2013-09-15 11:52:00,
2013-09-15 07:59:00,48.9,47.5,30.16,North,360,0.0,0.0,95,0.00,,,0.00,91,Wunderground v.1.15,2013-09-15 11:59:00,
2013-09-15 08:05:00,49.2,47.5,30.16,North,360,0.0,0.0,94,0.00,,,0.00,134,Wunderground v.1.15,2013-09-15 12:05:00,
2013-09-15 08:11:00,49.8,48.1,30.16,North,360,0.0,1.0,94,0.00,,,0.00,200,Wunderground v.1.15,2013-09-15 12:11:00,
2013-09-15 08:17:00,50.2,48.3,30.17,North,360,1.0,1.0,93,0.00,,,0.00,225,Wunderground v.1.15,2013-09-15 12:17:00,
2013-09-15 08:23:00,50.8,48.6,30.17,North,360,1.0,1.0,92,0.00,,,0.00,221,Wunderground v.1.15,2013-09-15 12:23:00,
2013-09-15 08:31:00,51.7,48.9,30.17,North,360,0.0,0.0,90,0.00,,,0.00,255,Wunderground v.1.15,2013-09-15 12:31:00,
2013-09-15 08:37:00,52.3,48.9,30.17,North,360,0.0,0.0,88,0.00,,,0.00,279,Wunderground v.1.15,2013-09-15 12:37:00,
2013-09-15 08:43:00,52.9,48.2,30.17,North,360,0.0,2.0,84,0.00,,,0.00,308,Wunderground v.1.15,2013-09-15 12:43:00,
2013-09-15 08:51:00,53.8,47.4,30.18,North,360,0.0,1.0,79,0.00,,,0.00,334,Wunderground v.1.15,2013-09-15 12:51:00,
2013-09-15 08:56:00,54.7,46.6,30.18,North,360,1.0,1.0,74,0.00,,,0.00,316,Wunderground v.1.15,2013-09-15 12:56:00,
2013-09-15 09:02:00,55.4,46.2,30.18,North,360,1.0,1.0,71,0.00,,,0.00,350,Wunderground v.1.15,2013-09-15 13:02:00,
2013-09-15 09:09:00,56.3,46.3,30.18,North,360,0.0,0.0,69,0.00,,,0.00,381,Wunderground v.1.15,2013-09-15 13:09:00,
2013-09-15 09:14:00,56.9,46.1,30.18,North,360,0.0,3.0,67,0.00,,,0.00,396,Wunderground v.1.15,2013-09-15 13:14:00,
2013-09-15 09:20:00,57.3,45.6,30.18,North,360,1.0,1.0,65,0.00,,,0.00,315,Wunderground v.1.15,2013-09-15 13:20:00,
2013-09-15 09:26:00,57.8,45.7,30.18,North,360,0.0,0.0,64,0.00,,,0.00,425,Wunderground v.1.15,2013-09-15 13:26:00,
2013-09-15 09:32:00,58.6,46.0,30.18,North,360,0.0,0.0,63,0.00,,,0.00,439,Wunderground v.1.15,2013-09-15 13:32:00,
2013-09-15 09:39:00,59.2,45.8,30.18,North,360,1.0,1.0,61,0.00,,,0.00,461,Wunderground v.1.15,2013-09-15 13:39:00,
2013-09-15 09:44:00,59.9,46.0,30.18,North,360,1.0,3.0,60,0.00,,,0.00,471,Wunderground v.1.15,2013-09-15 13:44:00,
2013-09-15 09:50:00,60.7,46.3,30.18,North,360,0.0,0.0,59,0.00,,,0.00,489,Wunderground v.1.15,2013-09-15 13:50:00,
2013-09-15 09:56:00,61.3,45.9,30.18,North,360,1.0,1.0,57,0.00,,,0.00,506,Wunderground v.1.15,2013-09-15 13:56:00,
2013-09-15 10:02:00,61.6,45.7,30.19,North,360,1.0,1.0,56,0.00,,,0.00,524,Wunderground v.1.15,2013-09-15 14:02:00,
2013-09-15 10:10:00,62.4,46.0,30.19,North,360,1.0,1.0,55,0.00,,,0.00,550,Wunderground v.1.15,2013-09-15 14:10:00,
2013-09-15 10:16:00,63.1,46.2,30.18,North,360,1.0,1.0,54,0.00,,,0.00,492,Wunderground v.1.15,2013-09-15 14:16:00,
2013-09-15 10:22:00,63.5,46.1,30.18,NNE,29,1.0,1.0,53,0.00,,,0.00,513,Wunderground v.1.15,2013-09-15 14:22:00,
2013-09-15 10:30:00,63.9,44.9,30.18,North,360,1.0,5.0,50,0.00,,,0.00,599,Wunderground v.1.15,2013-09-15 14:30:00,
2013-09-15 10:36:00,64.2,44.6,30.18,North,360,1.0,1.0,49,0.00,,,0.00,596,Wunderground v.1.15,2013-09-15 14:36:00,
2013-09-15 10:42:00,64.7,45.1,30.18,North,360,1.0,1.0,49,0.00,,,0.00,571,Wunderground v.1.15,2013-09-15 14:42:00,
2013-09-15 10:50:00,65.2,45.0,30.18,North,360,1.0,1.0,48,0.00,,,0.00,540,Wunderground v.1.15,2013-09-15 14:50:00,
2013-09-15 10:56:00,65.3,44.5,30.18,North,360,1.0,1.0,47,0.00,,,0.00,550,Wunderground v.1.15,2013-09-15 14:56:00,
2013-09-15 11:01:00,65.6,44.8,30.17,North,360,1.0,4.0,47,0.00,,,0.00,605,Wunderground v.1.15,2013-09-15 15:01:00,
2013-09-15 11:09:00,66.0,44.6,30.17,North,360,2.0,2.0,46,0.00,,,0.00,471,Wunderground v.1.15,2013-09-15 15:09:00,
2013-09-15 11:15:00,66.1,43.5,30.17,North,360,1.0,2.0,44,0.00,,,0.00,471,Wunderground v.1.15,2013-09-15 15:15:00,
2013-09-15 11:21:00,66.3,43.1,30.17,North,360,1.0,5.0,43,0.00,,,0.00,455,Wunderground v.1.15,2013-09-15 15:21:00,
2013-09-15 11:27:00,66.0,43.5,30.17,North,360,2.0,4.0,44,0.00,,,0.00,515,Wunderground v.1.15,2013-09-15 15:27:00,
2013-09-15 11:33:00,66.1,44.1,30.17,NNE,32,1.0,4.0,45,0.00,,,0.00,584,Wunderground v.1.15,2013-09-15 15:33:00,
2013-09-15 11:40:00,66.8,44.2,30.17,North,360,1.0,1.0,44,0.00,,,0.00,506,Wunderground v.1.15,2013-09-15 15:40:00,
2013-09-15 11:47:00,66.9,44.3,30.16,North,360,1.0,1.0,44,0.00,,,0.00,564,Wunderground v.1.15,2013-09-15 15:47:00,
2013-09-15 11:52:00,67.8,43.9,30.16,North,360,1.0,1.0,42,0.00,,,0.00,728,Wunderground v.1.15,2013-09-15 15:52:00,
2013-09-15 12:00:00,68.4,42.5,30.16,North,360,1.0,5.0,39,0.00,,,0.00,515,Wunderground v.1.15,2013-09-15 16:00:00,
2013-09-15 12:06:00,68.8,41.5,30.16,North,360,1.0,2.0,37,0.00,,,0.00,613,Wunderground v.1.15,2013-09-15 16:06:00,
2013-09-15 12:12:00,69.1,41.7,30.16,North,360,1.0,2.0,37,0.00,,,0.00,671,Wunderground v.1.15,2013-09-15 16:12:00,
2013-09-15 12:20:00,69.9,41.7,30.16,North,360,1.0,1.0,36,0.00,,,0.00,703,Wunderground v.1.15,2013-09-15 16:20:00,
2013-09-15 12:26:00,70.4,39.9,30.16,North,360,1.0,1.0,33,0.00,,,0.00,638,Wunderground v.1.15,2013-09-15 16:26:00,
2013-09-15 12:32:00,70.9,39.6,30.15,North,360,1.0,1.0,32,0.00,,,0.00,612,Wunderground v.1.15,2013-09-15 16:32:00,
2013-09-15 12:40:00,70.6,40.1,30.15,North,360,1.0,2.0,33,0.00,,,0.00,371,Wunderground v.1.15,2013-09-15 16:40:00,
2013-09-15 12:46:00,70.6,40.9,30.15,North,360,1.0,1.0,34,0.00,,,0.00,594,Wunderground v.1.15,2013-09-15 16:46:00,
2013-09-15 12:52:00,70.4,39.9,30.15,North,360,2.0,3.0,33,0.00,,,0.00,334,Wunderground v.1.15,2013-09-15 16:52:00,
2013-09-15 13:00:00,70.9,41.1,30.15,North,360,1.0,4.0,34,0.00,,,0.00,619,Wunderground v.1.15,2013-09-15 17:00:00,
2013-09-15 13:06:00,71.1,40.5,30.14,North,360,1.0,1.0,33,0.00,,,0.00,712,Wunderground v.1.15,2013-09-15 17:06:00,
2013-09-15 13:12:00,71.5,40.1,30.14,North,360,1.0,1.0,32,0.00,,,0.00,378,Wunderground v.1.15,2013-09-15 17:12:00,
2013-09-15 13:20:00,71.1,39.7,30.14,North,360,1.0,3.0,32,0.00,,,0.00,605,Wunderground v.1.15,2013-09-15 17:20:00,
2013-09-15 13:26:00,71.3,39.9,30.14,North,360,1.0,1.0,32,0.00,,,0.00,501,Wunderground v.1.15,2013-09-15 17:26:00,
2013-09-15 13:32:00,71.3,39.9,30.13,North,360,1.0,1.0,32,0.00,,,0.00,721,Wunderground v.1.15,2013-09-15 17:32:00,
2013-09-15 13:40:00,69.8,41.6,30.13,North,360,1.0,1.0,36,0.00,,,0.00,635,Wunderground v.1.15,2013-09-15 17:40:00,
2013-09-15 13:46:00,70.9,41.1,30.13,North,360,0.0,2.0,34,0.00,,,0.00,691,Wunderground v.1.15,2013-09-15 17:46:00,
2013-09-15 13:52:00,70.9,40.3,30.13,NNE,21,1.0,2.0,33,0.00,,,0.00,719,Wunderground v.1.15,2013-09-15 17:52:00,
2013-09-15 13:59:00,70.4,40.7,30.13,North,360,2.0,3.0,34,0.00,,,0.00,708,Wunderground v.1.15,2013-09-15 17:59:00,
2013-09-15 14:05:00,72.0,38.9,30.12,North,360,2.0,2.0,30,0.00,,,0.00,594,Wunderground v.1.15,2013-09-15 18:05:00,
2013-09-15 14:11:00,72.5,38.4,30.12,North,360,2.0,3.0,29,0.00,,,0.00,698,Wunderground v.1.15,2013-09-15 18:11:00,
2013-09-15 14:17:00,71.6,38.5,30.12,North,360,1.0,1.0,30,0.00,,,0.00,387,Wunderground v.1.15,2013-09-15 18:17:00,
2013-09-15 14:23:00,71.3,41.5,30.12,North,360,1.0,1.0,34,0.00,,,0.00,292,Wunderground v.1.15,2013-09-15 18:23:00,
2013-09-15 14:31:00,70.8,39.5,30.12,North,360,1.0,1.0,32,0.00,,,0.00,287,Wunderground v.1.15,2013-09-15 18:31:00,
2013-09-15 14:37:00,70.8,38.7,30.12,North,360,1.0,1.0,31,0.00,,,0.00,281,Wunderground v.1.15,2013-09-15 18:37:00,
2013-09-15 14:43:00,70.6,38.5,30.12,North,360,0.0,1.0,31,0.00,,,0.00,308,Wunderground v.1.15,2013-09-15 18:43:00,
2013-09-15 14:50:00,70.3,40.6,30.11,North,360,1.0,2.0,34,0.00,,,0.00,276,Wunderground v.1.15,2013-09-15 18:50:00,
2013-09-15 14:56:00,70.6,41.6,30.11,North,360,0.0,0.0,35,0.00,,,0.00,223,Wunderground v.1.15,2013-09-15 18:56:00,
2013-09-15 15:02:00,70.4,41.4,30.10,North,360,1.0,1.0,35,0.00,,,0.00,260,Wunderground v.1.15,2013-09-15 19:02:00,
2013-09-15 15:10:00,70.8,41.0,30.10,North,360,1.0,2.0,34,0.00,,,0.00,719,Wunderground v.1.15,2013-09-15 19:10:00,
2013-09-15 15:16:00,70.6,40.9,30.10,North,360,3.0,3.0,34,0.00,,,0.00,283,Wunderground v.1.15,2013-09-15 19:16:00,
2013-09-15 15:20:00,70.3,39.8,30.10,North,360,3.0,4.0,33,0.00,,,0.00,529,Wunderground v.1.15,2013-09-15 19:20:00,
2013-09-15 15:26:00,70.6,36.8,30.10,North,360,2.0,2.0,29,0.00,,,0.00,582,Wunderground v.1.15,2013-09-15 19:26:00,
2013-09-15 15:32:00,71.8,39.5,30.10,North,360,1.0,2.0,31,0.00,,,0.00,589,Wunderground v.1.15,2013-09-15 19:32:00,
2013-09-15 15:40:00,72.1,36.3,30.10,North,360,1.0,1.0,27,0.00,,,0.00,427,Wunderground v.1.15,2013-09-15 19:40:00,
2013-09-15 15:46:00,71.3,37.4,30.09,North,360,1.0,1.0,29,0.00,,,0.00,387,Wunderground v.1.15,2013-09-15 19:46:00,
2013-09-15 15:52:00,71.5,36.7,30.09,North,360,1.0,2.0,28,0.00,,,0.00,250,Wunderground v.1.15,2013-09-15 19:52:00,
2013-09-15 16:00:00,72.0,38.0,30.08,North,360,1.0,1.0,29,0.00,,,0.00,522,Wunderground v.1.15,2013-09-15 20:00:00,
2013-09-15 16:06:00,71.8,37.8,30.08,North,360,1.0,4.0,29,0.00,,,0.00,443,Wunderground v.1.15,2013-09-15 20:06:00,
2013-09-15 16:12:00,71.5,40.1,30.08,North,360,2.0,4.0,32,0.00,,,0.00,390,Wunderground v.1.15,2013-09-15 20:12:00,
2013-09-15 16:20:00,70.8,38.7,30.08,North,360,1.0,2.0,31,0.00,,,0.00,227,Wunderground v.1.15,2013-09-15 20:20:00,
2013-09-15 16:26:00,70.9,38.7,30.08,North,360,1.0,1.0,31,0.00,,,0.00,146,Wunderground v.1.15,2013-09-15 20:26:00,
2013-09-15 16:32:00,71.1,40.5,30.08,North,360,0.0,1.0,33,0.00,,,0.00,111,Wunderground v.1.15,2013-09-15 20:32:00,
2013-09-15 16:38:00,71.1,40.5,30.08,North,360,1.0,2.0,33,0.00,,,0.00,114,Wunderground v.1.15,2013-09-15 20:38:00,
2013-09-15 16:43:00,71.1,40.5,30.08,North,360,1.0,4.0,33,0.00,,,0.00,278,Wunderground v.1.15,2013-09-15 20:43:00,
2013-09-15 16:49:00,71.1,40.5,30.07,North,360,1.0,2.0,33,0.00,,,0.00,178,Wunderground v.1.15,2013-09-15 20:49:00,
2013-09-15 16:55:00,71.1,38.9,30.07,North,360,1.0,1.0,31,0.00,,,0.00,77,Wunderground v.1.15,2013-09-15 20:55:00,
2013-09-15 17:01:00,71.1,38.9,30.07,North,360,1.0,4.0,31,0.00,,,0.00,70,Wunderground v.1.15,2013-09-15 21:01:00,
2013-09-15 17:09:00,70.9,38.7,30.07,North,360,1.0,1.0,31,0.00,,,0.00,70,Wunderground v.1.15,2013-09-15 21:09:00,
2013-09-15 17:17:00,70.8,40.3,30.07,NNE,28,1.0,1.0,33,0.00,,,0.00,84,Wunderground v.1.15,2013-09-15 21:17:00,
2013-09-15 17:23:00,70.8,40.3,30.07,North,360,1.0,5.0,33,0.00,,,0.00,91,Wunderground v.1.15,2013-09-15 21:23:00,
2013-09-15 17:31:00,70.8,41.8,30.07,North,360,2.0,3.0,35,0.00,,,0.00,67,Wunderground v.1.15,2013-09-15 21:31:00,
2013-09-15 17:36:00,70.8,42.5,30.07,North,360,1.0,1.0,36,0.00,,,0.00,84,Wunderground v.1.15,2013-09-15 21:36:00,
2013-09-15 17:42:00,70.6,40.9,30.07,North,360,1.0,3.0,34,0.00,,,0.00,118,Wunderground v.1.15,2013-09-15 21:42:00,
2013-09-15 17:49:00,70.4,40.7,30.07,North,360,2.0,3.0,34,0.00,,,0.00,62,Wunderground v.1.15,2013-09-15 21:49:00,
2013-09-15 17:54:00,69.9,39.5,30.07,North,360,2.0,4.0,33,0.00,,,0.00,130,Wunderground v.1.15,2013-09-15 21:54:00,
2013-09-15 18:00:00,69.6,39.2,30.07,North,360,2.0,4.0,33,0.00,,,0.00,125,Wunderground v.1.15,2013-09-15 22:00:00,
2013-09-15 18:06:00,69.4,39.8,30.07,North,360,1.0,1.0,34,0.00,,,0.00,70,Wunderground v.1.15,2013-09-15 22:06:00,
2013-09-15 18:12:00,69.4,40.5,30.07,North,360,1.0,3.0,35,0.00,,,0.00,88,Wunderground v.1.15,2013-09-15 22:12:00,
2013-09-15 18:20:00,69.3,40.5,30.07,North,360,1.0,1.0,35,0.00,,,0.00,62,Wunderground v.1.15,2013-09-15 22:20:00,
2013-09-15 18:26:00,69.1,41.7,30.07,North,360,1.0,1.0,37,0.00,,,0.00,40,Wunderground v.1.15,2013-09-15 22:26:00,
2013-09-15 18:32:00,69.1,42.4,30.06,North,360,0.0,1.0,38,0.00,,,0.00,23,Wunderground v.1.15,2013-09-15 22:32:00,
2013-09-15 18:40:00,68.8,43.5,30.06,North,360,0.0,0.0,40,0.00,,,0.00,12,Wunderground v.1.15,2013-09-15 22:40:00,
2013-09-15 18:46:00,68.6,43.9,30.06,North,360,0.0,0.0,41,0.00,,,0.00,9,Wunderground v.1.15,2013-09-15 22:46:00,
2013-09-15 18:52:00,68.3,44.9,30.06,North,360,0.0,0.0,43,0.00,,,0.00,5,Wunderground v.1.15,2013-09-15 22:52:00,
2013-09-15 19:00:00,67.8,45.1,30.06,North,360,0.0,0.0,44,0.00,,,0.00,0,Wunderground v.1.15,2013-09-15 23:00:00,
2013-09-15 19:06:00,67.4,44.7,30.06,North,360,0.0,0.0,44,0.00,,,0.00,0,Wunderground v.1.15,2013-09-15 23:06:00,
2013-09-15 19:12:00,67.1,45.6,30.06,North,360,0.0,0.0,46,0.00,,,0.00,0,Wunderground v.1.15,2013-09-15 23:12:00,
2013-09-15 19:18:00,66.9,45.4,30.06,North,360,0.0,0.0,46,0.00,,,0.00,0,Wunderground v.1.15,2013-09-15 23:18:00,
2013-09-15 19:24:00,66.8,45.9,30.06,North,360,0.0,0.0,47,0.00,,,0.00,0,Wunderground v.1.15,2013-09-15 23:24:00,
2013-09-15 19:30:00,66.6,45.7,30.06,North,360,0.0,0.0,47,0.00,,,0.00,0,Wunderground v.1.15,2013-09-15 23:30:00,
2013-09-15 19:36:00,66.4,46.1,30.06,North,360,0.0,0.0,48,0.00,,,0.00,0,Wunderground v.1.15,2013-09-15 23:36:00,
2013-09-15 19:42:00,66.1,46.4,30.06,North,360,0.0,0.0,49,0.00,,,0.00,0,Wunderground v.1.15,2013-09-15 23:42:00,
2013-09-15 19:50:00,66.0,47.3,30.06,North,360,0.0,0.0,51,0.00,,,0.00,0,Wunderground v.1.15,2013-09-15 23:50:00,
2013-09-15 19:55:00,65.6,47.5,30.06,North,360,0.0,0.0,52,0.00,,,0.00,0,Wunderground v.1.15,2013-09-15 23:55:00,
2013-09-15 20:02:00,65.5,47.9,30.06,North,360,0.0,0.0,53,0.00,,,0.00,0,Wunderground v.1.15,2013-09-16 00:02:00,
2013-09-15 20:08:00,65.2,47.6,30.06,North,360,0.0,0.0,53,0.00,,,0.00,0,Wunderground v.1.15,2013-09-16 00:08:00,
2013-09-15 20:14:00,65.0,48.4,30.06,North,360,0.0,0.0,55,0.00,,,0.00,0,Wunderground v.1.15,2013-09-16 00:14:00,
2013-09-15 20:20:00,64.7,48.6,30.06,North,360,0.0,0.0,56,0.00,,,0.00,0,Wunderground v.1.15,2013-09-16 00:20:00,
2013-09-15 20:27:00,64.3,48.7,30.06,North,360,0.0,0.0,57,0.00,,,0.00,0,Wunderground v.1.15,2013-09-16 00:27:00,
2013-09-15 20:32:00,64.2,49.1,30.06,North,360,0.0,0.0,58,0.00,,,0.00,0,Wunderground v.1.15,2013-09-16 00:32:00,
2013-09-15 20:39:00,63.9,48.8,30.06,North,360,0.0,0.0,58,0.00,,,0.00,0,Wunderground v.1.15,2013-09-16 00:39:00,
2013-09-15 20:46:00,63.7,49.5,30.07,North,360,0.0,0.0,60,0.00,,,0.00,0,Wunderground v.1.15,2013-09-16 00:46:00,
2013-09-15 20:52:00,63.5,49.4,30.07,North,360,0.0,0.0,60,0.00,,,0.00,0,Wunderground v.1.15,2013-09-16 00:52:00,
2013-09-15 21:00:00,63.4,49.7,30.07,North,360,0.0,0.0,61,0.00,,,0.00,0,Wunderground v.1.15,2013-09-16 01:00:00,
2013-09-15 21:06:00,63.1,49.9,30.07,North,360,0.0,0.0,62,0.00,,,0.00,0,Wunderground v.1.15,2013-09-16 01:06:00,
2013-09-15 21:12:00,62.9,49.7,30.07,North,360,0.0,0.0,62,0.00,,,0.00,0,Wunderground v.1.15,2013-09-16 01:12:00,
2013-09-15 21:20:00,62.7,49.9,30.07,North,360,0.0,0.0,63,0.00,,,0.00,0,Wunderground v.1.15,2013-09-16 01:20:00,
2013-09-15 21:26:00,62.4,49.6,30.07,North,360,0.0,0.0,63,0.00,,,0.00,0,Wunderground v.1.15,2013-09-16 01:26:00,
2013-09-15 21:32:00,62.3,50.0,30.07,North,360,0.0,0.0,64,0.00,,,0.00,0,Wunderground v.1.15,2013-09-16 01:32:00,
2013-09-15 21:40:00,62.1,51.0,30.07,North,360,0.0,0.0,67,0.00,,,0.00,0,Wunderground v.1.15,2013-09-16 01:40:00,
2013-09-15 21:46:00,62.0,50.9,30.07,North,360,0.0,0.0,67,0.00,,,0.00,0,Wunderground v.1.15,2013-09-16 01:46:00,
2013-09-15 21:52:00,61.8,51.1,30.07,North,360,0.0,0.0,68,0.00,,,0.00,0,Wunderground v.1.15,2013-09-16 01:52:00,
2013-09-15 21:59:00,61.5,51.2,30.07,North,360,0.0,0.0,69,0.00,,,0.00,0,Wunderground v.1.15,2013-09-16 01:59:00,
2013-09-15 22:04:00,61.3,51.0,30.07,North,360,0.0,0.0,69,0.00,,,0.00,0,Wunderground v.1.15,2013-09-16 02:04:00,
2013-09-15 22:10:00,61.2,51.3,30.07,North,360,0.0,0.0,70,0.00,,,0.00,0,Wunderground v.1.15,2013-09-16 02:10:00,
2013-09-15 22:16:00,61.0,51.5,30.07,North,360,0.0,0.0,71,0.00,,,0.00,0,Wunderground v.1.15,2013-09-16 02:16:00,
2013-09-15 22:22:00,60.7,51.2,30.07,North,360,0.0,0.0,71,0.00,,,0.00,0,Wunderground v.1.15,2013-09-16 02:22:00,
2013-09-15 22:29:00,60.4,51.3,30.07,North,360,0.0,0.0,72,0.00,,,0.00,0,Wunderground v.1.15,2013-09-16 02:29:00,
2013-09-15 22:35:00,60.2,51.5,30.07,North,360,0.0,0.0,73,0.00,,,0.00,0,Wunderground v.1.15,2013-09-16 02:35:00,
2013-09-15 22:41:00,59.9,51.2,30.07,North,360,0.0,0.0,73,0.00,,,0.00,0,Wunderground v.1.15,2013-09-16 02:41:00,
2013-09-15 22:48:00,59.8,51.5,30.07,North,360,0.0,0.0,74,0.00,,,0.00,0,Wunderground v.1.15,2013-09-16 02:48:00,
2013-09-15 22:53:00,59.6,51.7,30.07,North,360,0.0,0.0,75,0.00,,,0.00,0,Wunderground v.1.15,2013-09-16 02:53:00,
2013-09-15 22:59:00,59.5,51.9,30.07,North,360,0.0,0.0,76,0.00,,,0.00,0,Wunderground v.1.15,2013-09-16 02:59:00,
2013-09-15 23:05:00,59.2,52.0,30.07,North,360,0.0,0.0,77,0.00,,,0.00,0,Wunderground v.1.15,2013-09-16 03:05:00,
2013-09-15 23:11:00,59.0,51.8,30.07,North,360,0.0,0.0,77,0.00,,,0.00,0,Wunderground v.1.15,2013-09-16 03:11:00,
2013-09-15 23:17:00,58.9,51.7,30.07,North,360,0.0,0.0,77,0.00,,,0.00,0,Wunderground v.1.15,2013-09-16 03:17:00,
2013-09-15 23:23:00,58.7,51.9,30.07,North,360,0.0,0.0,78,0.00,,,0.00,0,Wunderground v.1.15,2013-09-16 03:23:00,
2013-09-15 23:30:00,58.7,52.2,30.07,North,360,0.0,0.0,79,0.00,,,0.00,0,Wunderground v.1.15,2013-09-16 03:30:00,
2013-09-15 23:37:00,58.6,52.4,30.07,North,360,1.0,1.0,80,0.00,,,0.00,0,Wunderground v.1.15,2013-09-16 03:37:00,
2013-09-15 23:42:00,58.4,52.3,30.07,NNE,22,1.0,1.0,80,0.00,,,0.00,0,Wunderground v.1.15,2013-09-16 03:42:00,
2013-09-15 23:50:00,58.4,52.6,30.07,NNE,22,0.0,0.0,81,0.00,,,0.00,0,Wunderground v.1.15,2013-09-16 03:50:00,
2013-09-15 23:56:00,58.4,52.6,30.07,NNE,23,0.0,0.0,81,0.00,,,0.00,0,Wunderground v.1.15,2013-09-16 03:56:00,